Regional Weather Roundup
Issued by NWS

Home | Current Version | Previous Version | Text Only | Print | Product List | Glossary On
Versions: 1 2 3 4 5 6 7 8 9 10 11 12 13 14 15 16 17 18 19 20 21 22 23 24 25 26 27 28 29 30 31 32 33 34 35 36 37 38 39 40 41 42 43 44 45 46 47 48 49 50
559
ASUS43 KLSX 070410
RWRMO

WEATHER SUMMARY FOR MISSOURI
NATIONAL WEATHER SERVICE SPRINGFIELD MO
1000 PM CST TUE DEC 06 2016

NOTE: "FAIR" INDICATES FEW OR NO CLOUDS BELOW 12,000 FEET WITH NO
       SIGNIFICANT WEATHER AND/OR OBSTRUCTIONS TO VISIBILITY.
       CURRENT SKY AND/OR WEATHER CONDITIONS ARE NOT AVAILABLE FOR
       CHILLICOTHE AND FARMINGTON.

MOZ001>031-035>038-043-044-053-054-070500-
...NORTHERN AND WESTERN MISSOURI...

CITY           SKY/WX    TMP DP  RH WIND       PRES   REMARKS
KANSAS CTY INT PTCLDY    28  14  55 NW6       30.14R WCI  22
KANSAS C DTWN  PTCLDY    32  18  56 NW3       30.14S
LEE`S SUMMIT   PTCLDY    30  15  53 W6        30.13R WCI  24
ST JOSEPH      PTCLDY    26  17  68 W6        30.16R WCI  19
CHILLICOTHE      N/A     30  15  53 CALM      30.15R
KIRKSVILLE     PTCLDY    29  15  56 W10       30.11R WCI  20

$$
MOZ066>068-077>081-088>096-101>105-070500-
...SOUTHWEST MISSOURI...

CITY           SKY/WX    TMP DP  RH WIND       PRES   REMARKS
SPRINGFIELD    PTCLDY    32  19  58 NW3       30.11R
JOPLIN         PTCLDY    29  22  75 N5        30.14R WCI  24
BRANSON        CLOUDY    32  25  74 N5        30.10S WCI  27

$$
MOZ032>034-039>042-045>050-055>058-069>072-070500-
...CENTRAL MISSOURI...

CITY           SKY/WX    TMP DP  RH WIND       PRES   REMARKS
COLUMBIA       PTCLDY    32  18  56 NW12      30.11F WCI  23
JEFFERSON CITY MOCLDY    33  20  58 W5        30.13S WCI  29
ROLLA          CLOUDY    31  19  61 NW9       30.09R WCI  23
SEDALIA        PTCLDY    31  17  56 NW8       30.13F WCI  23
WHITEMAN AFB   PTCLDY    29  16  59 N7        30.11F WCI  22
WARRENSBURG    PTCLDY    30  18  59 W3        30.13S
OSAGE BEACH    MOCLDY    33  18  53 VRB3      30.13F

$$
MOZ051-052-059>065-070500-
...EAST CENTRAL MISSOURI...

CITY           SKY/WX    TMP DP  RH WIND       PRES   REMARKS
ST LOUIS INTL  MOCLDY    35  21  56 NW8       30.11R WCI  29
SPIRIT OF STL  PTCLDY    31  23  72 W6        30.13R WCI  25
ST CHARLES     PTCLDY    36  21  54 NW17      30.10S WCI  26

$$
MOZ072>076-082>087-097>100-106>115-070500-
...SOUTH CENTRAL AND SOUTHEAST MISSOURI...

CITY           SKY/WX    TMP DP  RH WIND       PRES   REMARKS
CAPE GIRARDEAU CLOUDY    37  34  89 W6        30.12R
FARMINGTON     PTCLDY    34  25  69 NW7       30.11S WCI  28
POPLAR BLUFF   CLOUDY    39  35  86 N5        30.12R
WEST PLAINS    PTCLDY    35  23  61 N5        30.10F

$$




USA.gov is the U.S. government's official web portal to all federal, state and local government web resources and services.